Weather Roundup
Issued by NWS

Home | Current Version | Previous Version | Text Only | Print | Product List | Glossary On
Versions: 1 2 3 4 5 6 7 8 9 10 11 12 13 14 15 16 17 18 19 20 21 22 23 24 25 26 27 28 29 30 31 32 33 34 35 36 37 38 39 40 41 42 43 44 45 46 47 48 49 50
000
NZUS93 KARX 230510
HRRWXR

CURRENT HOURLY OBSERVATIONS ACROSS
MUCH OF THE UPPER MISSISSIPPI VALLEY
NATIONAL WEATHER SERVICE LA CROSSE WI
1100 PM CST SUN JAN 22 2017


...SOUTHEAST MINNESOTA...


CITY           SKY/WX    TMP DP  RH WIND       PRES   REMARKS
ROCHESTER      CLOUDY    33  33 100 NW12      29.77F FOG     WCI  24
ROCHESTER/MAYO CLOUDY    33  34 100 W10G20    29.77F WCI  25
WINONA         CLOUDY    34  34 100 CALM      29.77F FOG
AUSTIN         CLOUDY    34  32  93 NW10G18   29.78F FOG     WCI  26
ALBERT LEA     CLOUDY    32  32 100 NW8G17    29.80S FOG     WCI  25
DODGE CENTER   CLOUDY    32  32 100 W10       29.78F FOG     WCI  24
PRESTON        CLOUDY    33  32  96 NW10      29.76F FOG     WCI  25
OWATONNA       CLOUDY    32  30  93 W8        29.81S FOG     WCI  25
FARIBAULT      NOT AVBL
$$

...ELSEWHERE IN MINNESOTA...


CITY           SKY/WX    TMP DP  RH WIND       PRES   REMARKS
MINNEAPOLIS    DRIZZLE   34  32  92 W9        29.79S FOG     WCI  27
INTNL FALLS    FOG       35  34  96 CALM      29.72R VSB 1/4
DULUTH         CLOUDY    35  34  96 NW5       29.71R WCI  31
RED WING       DRIZZLE   36  34  93 W5        29.78S WCI  32
REDWOOD FALLS  CLOUDY    33  28  81 NW7       29.82S WCI  27
MANKATO        CLOUDY    32  30  92 W7        29.82S FOG     WCI  26
WORTHINGTON    CLOUDY    30  28  92 NW13      29.84R WCI  20
FAIRMONT       CLOUDY    31  30  96 NW9       29.83S FOG     WCI  23
$$

...SOUTHWEST WISCONSIN...


CITY           SKY/WX    TMP DP  RH WIND       PRES   REMARKS
LA CROSSE      CLOUDY    39  36  89 N7        29.76S FOG     WCI  34
PRAIRIE DU CHI CLOUDY    37  34  90 NW3       29.79R
BOSCOBEL       CLOUDY    38  35  89 CALM      29.78R
LONE ROCK      CLOUDY    37  34  89 SW3       29.77R
PLATTEVILLE    CLOUDY    36  36 100 NW6       29.77R WCI  31
FORT MC COY    CLOUDY    35  34  99 W3        29.77R
CAMP DOUGLAS   CLOUDY    36  34  93 W6        29.75R WCI  31
MAUSTON-NEW LI CLOUDY    35  35  99 CALM      29.75R FOG
VIROQUA        CLOUDY    34  34 100 NW6       29.74R WCI  29
WIS DELLS      CLOUDY    35  35  99 NW3       29.75R FOG
$$

...ELSEWHERE IN WISCONSIN...


CITY           SKY/WX    TMP DP  RH WIND       PRES   REMARKS
MILWAUKEE      CLOUDY    39  34  82 NW3       29.72R
MADISON        CLOUDY    36  36 100 NW5       29.75R FOG     WCI  32
GREEN BAY      CLOUDY    36  36 100 CALM      29.71R FOG
EAU CLAIRE     CLOUDY    35  34  96 W5        29.75S FOG     WCI  31
BLACK RVR FLS  DRIZZLE   36  36 100 NW3       29.74F
MEDFORD        CLOUDY    33  33 100 W3        29.70S
WAUSAU         CLOUDY    34  34 100 NW3       29.70R
WIS RAPIDS     CLOUDY    35  35 100 NW5       29.74R FOG     WCI  31
MARSHFIELD     FOG       34  33  96 W5        29.71R VSB 1/4 WCI  30
RICE LAKE      CLOUDY    35  35 100 W6        29.76S FOG     WCI  30
$$

...NORTHEAST IOWA...


CITY           SKY/WX    TMP DP  RH WIND       PRES   REMARKS
WATERLOO       CLOUDY    35  34  96 NW12      29.80R WCI  27
DUBUQUE        CLOUDY    35  35 100 NW3       29.77R FOG
DECORAH        CLOUDY    36  34  93 NW8       29.76R WCI  29
MASON CITY     CLOUDY    32  32 100 NW16      29.80F FOG     WCI  21
CHARLES CITY   CLOUDY    34  34 100 NW10      29.79R FOG     WCI  26
OELWEIN        CLOUDY    34  34 100 NW9       29.79R WCI  26
$$

...ELSEWHERE IN IOWA...


CITY           SKY/WX    TMP DP  RH WIND       PRES   REMARKS
DES MOINES     DRIZZLE   37  35  92 NW13      29.84R WCI  29
IOWA CITY      CLOUDY    37  34  89 NW7       29.82R WCI  32
FORT DODGE     CLOUDY    32  28  86 NW9       29.83F WCI  24
MARSHALLTOWN   CLOUDY    36  36 100 NW7       29.81R WCI  30
CEDAR RAPIDS   CLOUDY    34  34 100 NW5       29.80R FOG     WCI  30
$$

...NORTHERN ILLINOIS...


CITY           SKY/WX    TMP DP  RH WIND       PRES   REMARKS
CHICAGO-OHARE  CLOUDY    40  37  89 N9        29.69R WCI  34
CHICAGO-MIDWAY CLOUDY    41  35  79 N8        29.68S
MOLINE         CLOUDY    38  34  85 NW8       29.77R WCI  32
ROCKFORD       CLOUDY    39  35  86 N7        29.76R FOG     WCI  34
PEORIA         CLOUDY    39  36  89 N7        29.73S WCI  34
$$

NOTE: "FAIR" INDICATES FEW OR NO CLOUDS BELOW 12,000 FEET WITH NO
SIGNIFICANT WEATHER AND/OR OBSTRUCTIONS TO VISIBILITY. WIND
SPEEDS ARE IN MILES-PER-HOUR.




USA.gov is the U.S. government's official web portal to all federal, state and local government web resources and services.